• Join FlightAware (Why Join?)
  • Login
  • US Flag 
04:16PM EST


 

Airport Tracker/Info


-or-


 

Live Flight TrackerFlight Track Log ✈ EJA922 ✈ 08-Jul-2014 ✈ KHPN - TXKF / BDA

Flight Track Log - Related Links

Times and Time Zones

All times are in EDT time to prevent confusion due to time zone crossing. See the EJA922 flight status page for this flight to view local times or setup timezone preferences in your user account.

Time Position Orientation Groundspeed Altitude Reporting Facility
EDT Latitude Longitude Course Direction KTS MPH feet Rate Location/Type
04:52AM 41.0000 -73.7667 143° Southeast 206 237 4,000  Level New York TRACON
04:53AM 40.9333 -73.7667 180° South 274 315 6,400 2,640 Climbing New York TRACON
04:54AM 40.8500 -73.7667 180° South 269 310 9,600 1,740 Climbing New York TRACON
04:56AM 40.4897 -73.5230 143° Southeast  Level FlightAware Approximate
04:56AM 40.6611 -73.7694 181° South 336 387 12,100  Level New York Center
04:57AM 40.5858 -73.6922 142° Southeast 338 389 13,800 2,040 Climbing New York Center
04:58AM 40.5036 -73.5714 132° Southeast 378 435 16,200 1,980 Climbing New York Center
04:59AM 40.4350 -73.4733 133° Southeast 405 466 17,900 1,500 Climbing New York Center
05:00AM 40.3561 -73.3639 133° Southeast 405 466 19,200 1,320 Climbing New York Center
05:01AM 40.2711 -73.2464 133° Southeast 415 478 20,600 1,320 Climbing New York Center
05:02AM 40.1922 -73.1322 132° Southeast 421 484 21,900 1,320 Climbing New York Center
05:03AM 40.1069 -73.0153 134° Southeast 431 496 23,300 1,560 Climbing New York Center
05:04AM 40.0136 -72.8794 132° Southeast 437 503 25,000 1,560 Climbing New York Center
05:05AM 39.9283 -72.7633 134° Southeast 443 510 26,400 1,320 Climbing New York Center
05:06AM 39.8428 -72.6417 132° Southeast 443 510 27,700 1,320 Climbing New York Center
05:07AM 39.7572 -72.5206 133° Southeast 448 516 29,100 1,320 Climbing New York Center
05:08AM 39.6672 -72.3997 134° Southeast 453 521 30,500 1,440 Climbing New York Center
05:09AM 39.5792 -72.2736 132° Southeast 459 528 32,000 1,500 Climbing New York Center
05:10AM 39.4889 -72.1561 135° Southeast 459 528 33,500 1,380 Climbing New York Center
05:11AM 39.4008 -72.0308 132° Southeast 465 535 34,800 1,440 Climbing New York Center
05:12AM 39.3103 -71.9111 134° Southeast 465 535 36,400 1,440 Climbing New York Center
05:13AM 39.2178 -71.7808 132° Southeast 465 535 37,800 1,500 Climbing New York Center
05:14AM 39.1269 -71.6592 134° Southeast 470 541 39,500 1,320 Climbing New York Center
05:15AM 39.0361 -71.5378 134° Southeast 470 541 40,500 720 Climbing New York Center
05:16AM 38.9431 -71.4058 132° Southeast 475 547 41,000 240 Climbing New York Center
05:17AM 38.8417 -71.2875 138° Southeast 485 558 41,000  Level New York Center
05:18AM 38.7422 -71.1508 133° Southeast 505 581 41,000  Level New York Center
05:19AM 38.6403 -71.0175 134° Southeast 518 596 41,000  Level New York Center
05:20AM 38.5406 -70.8817 133° Southeast 518 596 41,000  Level New York Center
05:21AM 38.4425 -70.7461 133° Southeast 513 590 41,000  Level New York Center
05:22AM 38.3383 -70.6164 136° Southeast 513 590 41,000  Level New York Center
05:23AM 38.2400 -70.4844 133° Southeast 513 590 41,000  Level New York Center
05:24AM 38.1375 -70.3500 134° Southeast 513 590 41,000  Level New York Center
05:25AM 38.0308 -70.2319 139° Southeast 513 590 41,000  Level New York Center
05:26AM 37.9361 -70.0878 130° Southeast 525 604 41,000  Level New York Center
05:26AM 38.1333 -70.3667 133° Southeast 511 588 41,000  Level New York Oceanic (ODAPS)
05:27AM 37.8394 -69.9467 133° Southeast 525 604 41,000  Level New York Center
05:28AM 37.7383 -69.8164 134° Southeast 519 597 41,000  Level New York Center
05:41AM 36.5667 -68.2833 142° Southeast 483 556 41,000  Level New York Oceanic (ODAPS)
05:51AM 35.2125 -66.9758 141° Southeast 513 590 41,000  Level New York Center
05:52AM 35.1870 -66.9646 143° Southeast 483 556 41,000  Level FlightAware Transoceanic
05:52AM 35.1114 -66.8842 143° Southeast 513 590 41,000  Level New York Center
05:53AM 35.0803 -66.8650 143° Southeast 483 556 41,000  Level FlightAware Transoceanic
05:53AM 34.9828 -66.7764 146° Southeast 513 590 41,000  Level New York Center
05:54AM 34.9833 -66.7672 140° Southeast  Level FlightAware Approximate
05:54AM 34.8744 -66.6578 138° Southeast 518 596 41,000  Level New York Center
05:55AM 34.8862 -66.6695 140° Southeast  Level FlightAware Approximate
05:55AM 34.7692 -66.5744 147° Southeast 517 595 41,000  Level New York Center
05:56AM 34.7890 -66.5721 141° Southeast  Level FlightAware Approximate
05:56AM 34.6364 -66.4728 148° Southeast 517 595 41,000  Level New York Center
05:57AM 34.5286 -66.3828 145° Southeast 512 589 41,000  Level New York Center
05:58AM 34.3997 -66.2789 146° Southeast 512 589 41,000 -120 Level New York Center
05:59AM 34.2872 -66.1719 142° Southeast 518 596 40,800 -540 Descending New York Center
06:00AM 34.1975 -66.0642 135° Southeast 507 583 40,000 -1,260 Descending New York Center
06:01AM 34.0861 -65.9378 137° Southeast 502 578 38,300 -1,800 Descending New York Center
06:02AM 33.9853 -65.8233 137° Southeast 497 572 36,500 -1,980 Descending New York Center
06:03AM 33.8994 -65.7136 133° Southeast 497 572 34,500 -2,040 Descending New York Center
06:04AM 33.8033 -65.5669 128° Southeast 503 579 32,500 -1,800 Descending New York Center
06:05AM 33.6961 -65.4542 139° Southeast 510 587 30,900 -2,100 Descending New York Center
06:06AM 33.5844 -65.3789 151° Southeast 510 587 28,300 -2,820 Descending New York Center
06:07AM 33.4489 -65.2908 152° Southeast 510 587 25,300 -2,700 Descending New York Center
06:08AM 33.3436 -65.2181 150° Southeast 497 572 22,900 -2,640 Descending New York Center
06:09AM 33.2189 -65.1372 152° Southeast 483 556 20,100 -2,580 Descending New York Center
06:10AM 33.1069 -65.0653 152° Southeast 473 544 17,800 -2,340 Descending New York Center
06:11AM 33.0081 -65.0028 152° Southeast 459 528 15,500 -2,400 Descending New York Center
06:12AM 32.9003 -64.9311 151° Southeast 419 482 13,100 -2,160 Descending New York Center
06:13AM 32.8100 -64.8756 153° Southeast 390 449 11,200 -1,800 Descending New York Center
06:14AM 32.7367 -64.8264 151° Southeast 356 410 9,500 -1,800 Descending New York Center
06:15AM 32.6528 -64.7756 153° Southeast 320 368 7,700 -1,680 Descending New York Center
06:16AM 32.5861 -64.7311 151° Southeast 294 338 6,200 -1,680 Descending New York Center
06:17AM 32.5300 -64.6933 150° Southeast 275 316 4,400 -2,100 Descending New York Center
06:18AM 32.4678 -64.6608 156° South 246 283 2,100 -1,500 Descending New York Center
06:19AM 32.4175 -64.6178 144° Southeast 216 249 1,500 -480 Descending New York Center
06:20AM 32.3922 -64.5706 122° Southeast 194 223 1,200 -120 Descending New York Center
06:21AM 32.3617 -64.5850 202° Southwest 109 125 1,300 -360 Climbing New York Center
06:22AM 32.3581 -64.6319 265° West 116 133 500 -780 Descending New York Center
06:24AM 32.3500 -64.6667 180° South  Level FlightAware Approximate
06:31AM 32.3640 -64.6787 180° South  Level Estimated
06:32AM 32.3640 -64.6787 180° South  Level Estimated
06:33AM 32.3640 -64.6787 180° South  Level Estimated
06:34AM 32.3640 -64.6787 180° South  Level Estimated
06:35AM 32.3640 -64.6787 180° South  Level Estimated
06:36AM 32.3640 -64.6787 180° South  Level Estimated
06:37AM 32.3640 -64.6787 180° South  Level Estimated
06:38AM 32.3640 -64.6787 180° South  Level Estimated
06:39AM 32.3640 -64.6787 180° South  Level Estimated
06:40AM 32.3640 -64.6787 180° South  Level Estimated
06:41AM 32.3640 -64.6787 180° South  Level Estimated